Multibeam Report for RR1213


Ship Name: Roger Revelle
Chief Scientist: Smith, Jerome
Scripps Institution of Oceanography
Source Organization: Rolling Deck to Repository
Start Date: 2012-10-04
End Date: 2012-11-05


View ISO Metadata

Visit the full NCEI Bathymetry Viewer


Multibeam Bathymetry

Cruise Details

Project: The Equatorial Mixed Layer and Upper Ocean Mixing and UAV Test
Instrument: Kongsberg EM122

Data Quality

Number of Files: 681
Number of Records: 142553
BATHYMETRY DATA Quantity Percentage
Number of Beams 61490016 100%
Number of Good Beams 53407069 86.85%
Number of Zero Beams 0 0%
Number of Flagged Beams 8082947 13.15%
AMPLITUDE DATA Quantity Percentage
Number of Beams 61490016 100%
Number of Good Beams 53407069 86.85%
Number of Zero Beams 0 0%
Number of Flagged Beams 8082947 13.15%
SIDESCAN DATA Quantity Percentage
Number of Pixels 145754112 100%
Number of Good Pixels 95524409 65.54%
Number of Zero Pixels 0 0%
Number of Flagged Pixels 50229703 34.46%

Navigation Totals

Total Time: 332.31 hours
Total Track Length: 5092.4816 km
Average Speed: 15.324 km/hr (8.2743 knots)

Cruise Bounds

Northern Extent: 3.21E-4
Southern Extent: -16.11671
Western Extent: -148.98328
Eastern Extent: -136.7619

Limits

Minimum Sonar Depth 3.8188 Maximum Sonar Depth 7.4504
Minimum Altitude 872.0025 Maximum Altitude 5875.4063
Minimum Depth 877.2755 Maximum Depth 6418.6753
Minimum Amplitude 0 Maximum Amplitude 3.1
Minimum Sidescan 0 Maximum Sidescan 301.41

File Information

Full Resolution Bathymetry as collected (raw): 678

Files File Size Description
0000_20121005_095426_revelle.all.mb58.gz 11.17MB Kongsberg multibeam vendor format
0001_20121005_102429_revelle.all.mb58.gz 11.88MB Kongsberg multibeam vendor format
0002_20121005_105434_revelle.all.mb58.gz 11.91MB Kongsberg multibeam vendor format
0003_20121005_112431_revelle.all.mb58.gz 11.76MB Kongsberg multibeam vendor format
0004_20121005_115427_revelle.all.mb58.gz 11.75MB Kongsberg multibeam vendor format
0005_20121005_122434_revelle.all.mb58.gz 11.26MB Kongsberg multibeam vendor format
0006_20121005_125421_revelle.all.mb58.gz 11.37MB Kongsberg multibeam vendor format
0007_20121005_132433_revelle.all.mb58.gz 11.24MB Kongsberg multibeam vendor format
0008_20121005_135436_revelle.all.mb58.gz 10.64MB Kongsberg multibeam vendor format
0009_20121005_142434_revelle.all.mb58.gz 10.71MB Kongsberg multibeam vendor format
0010_20121005_145432_revelle.all.mb58.gz 24.82MB Kongsberg multibeam vendor format
0011_20121005_152425_revelle.all.mb58.gz 15.95MB Kongsberg multibeam vendor format
0012_20121005_155422_revelle.all.mb58.gz 13.99MB Kongsberg multibeam vendor format
0013_20121005_162424_revelle.all.mb58.gz 10.64MB Kongsberg multibeam vendor format
0014_20121005_165429_revelle.all.mb58.gz 11.36MB Kongsberg multibeam vendor format
0015_20121005_172425_revelle.all.mb58.gz 14.33MB Kongsberg multibeam vendor format
0016_20121005_175427_revelle.all.mb58.gz 12.45MB Kongsberg multibeam vendor format
0017_20121005_182428_revelle.all.mb58.gz 12.63MB Kongsberg multibeam vendor format
0018_20121005_185423_revelle.all.mb58.gz 12.57MB Kongsberg multibeam vendor format
0019_20121005_192425_revelle.all.mb58.gz 13.78MB Kongsberg multibeam vendor format
0020_20121005_195427_revelle.all.mb58.gz 9.39MB Kongsberg multibeam vendor format
0021_20121005_202423_revelle.all.mb58.gz 6.22MB Kongsberg multibeam vendor format
0022_20121005_205423_revelle.all.mb58.gz 6.11MB Kongsberg multibeam vendor format
0023_20121005_212436_revelle.all.mb58.gz 6.34MB Kongsberg multibeam vendor format
0024_20121005_215434_revelle.all.mb58.gz 6.09MB Kongsberg multibeam vendor format
0025_20121005_222436_revelle.all.mb58.gz 6.14MB Kongsberg multibeam vendor format
0026_20121005_225429_revelle.all.mb58.gz 6.16MB Kongsberg multibeam vendor format
0027_20121005_232431_revelle.all.mb58.gz 5.95MB Kongsberg multibeam vendor format
0028_20121005_235425_revelle.all.mb58.gz 6.48MB Kongsberg multibeam vendor format
0029_20121006_002434_revelle.all.mb58.gz 5.95MB Kongsberg multibeam vendor format
0030_20121006_005421_revelle.all.mb58.gz 5.97MB Kongsberg multibeam vendor format
0031_20121006_012430_revelle.all.mb58.gz 6.08MB Kongsberg multibeam vendor format
0032_20121006_015438_revelle.all.mb58.gz 6.03MB Kongsberg multibeam vendor format
0033_20121006_022426_revelle.all.mb58.gz 6.25MB Kongsberg multibeam vendor format
0034_20121006_025428_revelle.all.mb58.gz 6.16MB Kongsberg multibeam vendor format
0035_20121006_032428_revelle.all.mb58.gz 5.80MB Kongsberg multibeam vendor format
0036_20121006_035430_revelle.all.mb58.gz 6.13MB Kongsberg multibeam vendor format
0037_20121006_042435_revelle.all.mb58.gz 6.07MB Kongsberg multibeam vendor format
0038_20121006_045435_revelle.all.mb58.gz 6.06MB Kongsberg multibeam vendor format
0039_20121006_052433_revelle.all.mb58.gz 5.97MB Kongsberg multibeam vendor format
0040_20121006_055423_revelle.all.mb58.gz 6.02MB Kongsberg multibeam vendor format
0041_20121006_062432_revelle.all.mb58.gz 5.87MB Kongsberg multibeam vendor format
0042_20121006_065436_revelle.all.mb58.gz 6.21MB Kongsberg multibeam vendor format
0043_20121006_072435_revelle.all.mb58.gz 6.18MB Kongsberg multibeam vendor format
0044_20121006_075432_revelle.all.mb58.gz 5.79MB Kongsberg multibeam vendor format
0045_20121006_082424_revelle.all.mb58.gz 5.90MB Kongsberg multibeam vendor format
0046_20121006_085427_revelle.all.mb58.gz 5.95MB Kongsberg multibeam vendor format
0047_20121006_092426_revelle.all.mb58.gz 5.97MB Kongsberg multibeam vendor format
0048_20121006_095424_revelle.all.mb58.gz 6.19MB Kongsberg multibeam vendor format
0049_20121006_102435_revelle.all.mb58.gz 5.91MB Kongsberg multibeam vendor format
0050_20121006_105432_revelle.all.mb58.gz 6.02MB Kongsberg multibeam vendor format
0051_20121006_112437_revelle.all.mb58.gz 6.05MB Kongsberg multibeam vendor format
0052_20121006_115431_revelle.all.mb58.gz 5.89MB Kongsberg multibeam vendor format
0053_20121006_122423_revelle.all.mb58.gz 5.77MB Kongsberg multibeam vendor format
0054_20121006_125426_revelle.all.mb58.gz 5.94MB Kongsberg multibeam vendor format
0055_20121006_132430_revelle.all.mb58.gz 5.85MB Kongsberg multibeam vendor format
0056_20121006_135437_revelle.all.mb58.gz 5.70MB Kongsberg multibeam vendor format
0057_20121006_142424_revelle.all.mb58.gz 5.79MB Kongsberg multibeam vendor format
0058_20121006_145436_revelle.all.mb58.gz 5.83MB Kongsberg multibeam vendor format
0059_20121006_152428_revelle.all.mb58.gz 6.11MB Kongsberg multibeam vendor format
0060_20121006_155435_revelle.all.mb58.gz 6.40MB Kongsberg multibeam vendor format
0061_20121006_162436_revelle.all.mb58.gz 5.84MB Kongsberg multibeam vendor format
0062_20121006_165424_revelle.all.mb58.gz 6.15MB Kongsberg multibeam vendor format
0063_20121006_172436_revelle.all.mb58.gz 6.15MB Kongsberg multibeam vendor format
0064_20121006_175429_revelle.all.mb58.gz 6.19MB Kongsberg multibeam vendor format
0065_20121006_182427_revelle.all.mb58.gz 5.85MB Kongsberg multibeam vendor format
0066_20121006_185438_revelle.all.mb58.gz 5.81MB Kongsberg multibeam vendor format
0067_20121006_192434_revelle.all.mb58.gz 5.65MB Kongsberg multibeam vendor format
0068_20121006_195440_revelle.all.mb58.gz 5.76MB Kongsberg multibeam vendor format
0069_20121006_202424_revelle.all.mb58.gz 5.67MB Kongsberg multibeam vendor format
0070_20121006_205422_revelle.all.mb58.gz 6.14MB Kongsberg multibeam vendor format
0071_20121006_212426_revelle.all.mb58.gz 4.86MB Kongsberg multibeam vendor format
0072_20121006_215425_revelle.all.mb58.gz 0.83MB Kongsberg multibeam vendor format
0073_20121006_221246_revelle.all.mb58.gz 9.05MB Kongsberg multibeam vendor format
0074_20121006_224242_revelle.all.mb58.gz 1.46MB Kongsberg multibeam vendor format
0075_20121007_000822_revelle.all.mb58.gz 9.18MB Kongsberg multibeam vendor format
0076_20121007_003831_revelle.all.mb58.gz 8.93MB Kongsberg multibeam vendor format
0077_20121007_010819_revelle.all.mb58.gz 8.58MB Kongsberg multibeam vendor format
0078_20121007_013819_revelle.all.mb58.gz 8.67MB Kongsberg multibeam vendor format
0079_20121007_020828_revelle.all.mb58.gz 9.09MB Kongsberg multibeam vendor format
0080_20121007_023815_revelle.all.mb58.gz 9.26MB Kongsberg multibeam vendor format
0081_20121007_030820_revelle.all.mb58.gz 9.27MB Kongsberg multibeam vendor format
0082_20121007_033830_revelle.all.mb58.gz 9.19MB Kongsberg multibeam vendor format
0083_20121007_040837_revelle.all.mb58.gz 9.25MB Kongsberg multibeam vendor format
0084_20121007_043835_revelle.all.mb58.gz 9.23MB Kongsberg multibeam vendor format
0085_20121007_050835_revelle.all.mb58.gz 9.17MB Kongsberg multibeam vendor format
0086_20121007_053835_revelle.all.mb58.gz 9.27MB Kongsberg multibeam vendor format
0087_20121007_060824_revelle.all.mb58.gz 9.18MB Kongsberg multibeam vendor format
0088_20121007_063824_revelle.all.mb58.gz 9.22MB Kongsberg multibeam vendor format
0089_20121007_070830_revelle.all.mb58.gz 9.24MB Kongsberg multibeam vendor format
0090_20121007_073830_revelle.all.mb58.gz 9.21MB Kongsberg multibeam vendor format
0091_20121007_080829_revelle.all.mb58.gz 9.13MB Kongsberg multibeam vendor format
0092_20121007_083822_revelle.all.mb58.gz 9.17MB Kongsberg multibeam vendor format
0093_20121007_090817_revelle.all.mb58.gz 9.23MB Kongsberg multibeam vendor format
0094_20121007_093820_revelle.all.mb58.gz 9.20MB Kongsberg multibeam vendor format
0095_20121007_100821_revelle.all.mb58.gz 9.39MB Kongsberg multibeam vendor format
0096_20121007_103821_revelle.all.mb58.gz 9.33MB Kongsberg multibeam vendor format
0097_20121007_110823_revelle.all.mb58.gz 9.34MB Kongsberg multibeam vendor format
0098_20121007_113819_revelle.all.mb58.gz 9.36MB Kongsberg multibeam vendor format
0099_20121007_120822_revelle.all.mb58.gz 9.51MB Kongsberg multibeam vendor format
0100_20121007_123831_revelle.all.mb58.gz 9.38MB Kongsberg multibeam vendor format
0101_20121007_130828_revelle.all.mb58.gz 9.55MB Kongsberg multibeam vendor format
0102_20121007_133824_revelle.all.mb58.gz 9.39MB Kongsberg multibeam vendor format
0103_20121007_140822_revelle.all.mb58.gz 9.54MB Kongsberg multibeam vendor format
0104_20121007_143822_revelle.all.mb58.gz 9.48MB Kongsberg multibeam vendor format
0105_20121007_150834_revelle.all.mb58.gz 9.31MB Kongsberg multibeam vendor format
0106_20121007_153822_revelle.all.mb58.gz 9.39MB Kongsberg multibeam vendor format
0107_20121007_160827_revelle.all.mb58.gz 9.30MB Kongsberg multibeam vendor format
0108_20121007_163820_revelle.all.mb58.gz 9.38MB Kongsberg multibeam vendor format
0109_20121007_170829_revelle.all.mb58.gz 9.31MB Kongsberg multibeam vendor format
0110_20121007_173817_revelle.all.mb58.gz 9.47MB Kongsberg multibeam vendor format
0111_20121007_180823_revelle.all.mb58.gz 9.11MB Kongsberg multibeam vendor format
0112_20121007_183831_revelle.all.mb58.gz 8.47MB Kongsberg multibeam vendor format
0113_20121007_190821_revelle.all.mb58.gz 9.35MB Kongsberg multibeam vendor format
0114_20121007_193833_revelle.all.mb58.gz 9.49MB Kongsberg multibeam vendor format
0115_20121007_200825_revelle.all.mb58.gz 9.51MB Kongsberg multibeam vendor format
0116_20121007_203819_revelle.all.mb58.gz 9.63MB Kongsberg multibeam vendor format
0117_20121007_210830_revelle.all.mb58.gz 9.68MB Kongsberg multibeam vendor format
0118_20121007_213835_revelle.all.mb58.gz 9.45MB Kongsberg multibeam vendor format
0119_20121007_220821_revelle.all.mb58.gz 9.60MB Kongsberg multibeam vendor format
0120_20121007_223827_revelle.all.mb58.gz 9.60MB Kongsberg multibeam vendor format
0121_20121007_230822_revelle.all.mb58.gz 9.51MB Kongsberg multibeam vendor format
0122_20121007_233819_revelle.all.mb58.gz 9.46MB Kongsberg multibeam vendor format
0123_20121008_000830_revelle.all.mb58.gz 9.46MB Kongsberg multibeam vendor format
0124_20121008_003820_revelle.all.mb58.gz 9.48MB Kongsberg multibeam vendor format
0125_20121008_010832_revelle.all.mb58.gz 9.32MB Kongsberg multibeam vendor format
0126_20121008_013829_revelle.all.mb58.gz 9.02MB Kongsberg multibeam vendor format
0127_20121008_020828_revelle.all.mb58.gz 8.73MB Kongsberg multibeam vendor format
0128_20121008_023823_revelle.all.mb58.gz 9.30MB Kongsberg multibeam vendor format
0129_20121008_030833_revelle.all.mb58.gz 9.13MB Kongsberg multibeam vendor format
0130_20121008_033830_revelle.all.mb58.gz 9.17MB Kongsberg multibeam vendor format
0131_20121008_040832_revelle.all.mb58.gz 9.23MB Kongsberg multibeam vendor format
0132_20121008_043821_revelle.all.mb58.gz 9.24MB Kongsberg multibeam vendor format
0133_20121008_050817_revelle.all.mb58.gz 18.50MB Kongsberg multibeam vendor format
0134_20121008_053827_revelle.all.mb58.gz 18.41MB Kongsberg multibeam vendor format
0135_20121008_060832_revelle.all.mb58.gz 18.25MB Kongsberg multibeam vendor format
0136_20121008_063820_revelle.all.mb58.gz 18.44MB Kongsberg multibeam vendor format
0137_20121008_070826_revelle.all.mb58.gz 19.60MB Kongsberg multibeam vendor format
0138_20121008_073819_revelle.all.mb58.gz 21.73MB Kongsberg multibeam vendor format
0139_20121008_080825_revelle.all.mb58.gz 21.82MB Kongsberg multibeam vendor format
0140_20121008_083830_revelle.all.mb58.gz 21.13MB Kongsberg multibeam vendor format
0141_20121008_090827_revelle.all.mb58.gz 20.93MB Kongsberg multibeam vendor format
0142_20121008_093823_revelle.all.mb58.gz 20.71MB Kongsberg multibeam vendor format
0143_20121008_100819_revelle.all.mb58.gz 20.70MB Kongsberg multibeam vendor format
0144_20121008_103830_revelle.all.mb58.gz 20.39MB Kongsberg multibeam vendor format
0145_20121008_110820_revelle.all.mb58.gz 20.41MB Kongsberg multibeam vendor format
0146_20121008_113819_revelle.all.mb58.gz 20.95MB Kongsberg multibeam vendor format
0147_20121008_120829_revelle.all.mb58.gz 21.48MB Kongsberg multibeam vendor format
0148_20121008_123820_revelle.all.mb58.gz 21.84MB Kongsberg multibeam vendor format
0149_20121008_130829_revelle.all.mb58.gz 21.48MB Kongsberg multibeam vendor format
0150_20121008_133829_revelle.all.mb58.gz 21.44MB Kongsberg multibeam vendor format
0151_20121008_140828_revelle.all.mb58.gz 21.11MB Kongsberg multibeam vendor format
0152_20121008_143819_revelle.all.mb58.gz 21.33MB Kongsberg multibeam vendor format
0153_20121008_150822_revelle.all.mb58.gz 21.21MB Kongsberg multibeam vendor format
0154_20121008_153824_revelle.all.mb58.gz 20.81MB Kongsberg multibeam vendor format
0155_20121008_160823_revelle.all.mb58.gz 20.96MB Kongsberg multibeam vendor format
0156_20121008_163832_revelle.all.mb58.gz 21.40MB Kongsberg multibeam vendor format
0157_20121008_170824_revelle.all.mb58.gz 21.26MB Kongsberg multibeam vendor format
0158_20121008_173821_revelle.all.mb58.gz 21.54MB Kongsberg multibeam vendor format
0159_20121008_180830_revelle.all.mb58.gz 21.15MB Kongsberg multibeam vendor format
0160_20121008_183827_revelle.all.mb58.gz 20.86MB Kongsberg multibeam vendor format
0161_20121008_190826_revelle.all.mb58.gz 20.96MB Kongsberg multibeam vendor format
0162_20121008_193832_revelle.all.mb58.gz 21.29MB Kongsberg multibeam vendor format
0163_20121008_200824_revelle.all.mb58.gz 21.70MB Kongsberg multibeam vendor format
0164_20121008_203832_revelle.all.mb58.gz 21.06MB Kongsberg multibeam vendor format
0165_20121008_210824_revelle.all.mb58.gz 21.35MB Kongsberg multibeam vendor format
0166_20121008_213824_revelle.all.mb58.gz 21.47MB Kongsberg multibeam vendor format
0167_20121008_220823_revelle.all.mb58.gz 21.36MB Kongsberg multibeam vendor format
0168_20121008_223829_revelle.all.mb58.gz 21.19MB Kongsberg multibeam vendor format
0169_20121008_230836_revelle.all.mb58.gz 20.96MB Kongsberg multibeam vendor format
0170_20121008_233829_revelle.all.mb58.gz 21.50MB Kongsberg multibeam vendor format
0171_20121009_000823_revelle.all.mb58.gz 21.66MB Kongsberg multibeam vendor format
0172_20121009_003826_revelle.all.mb58.gz 21.16MB Kongsberg multibeam vendor format
0173_20121009_010826_revelle.all.mb58.gz 21.28MB Kongsberg multibeam vendor format
0174_20121009_013832_revelle.all.mb58.gz 20.90MB Kongsberg multibeam vendor format
0175_20121009_020819_revelle.all.mb58.gz 21.61MB Kongsberg multibeam vendor format
0176_20121009_023822_revelle.all.mb58.gz 21.13MB Kongsberg multibeam vendor format
0177_20121009_030823_revelle.all.mb58.gz 21.70MB Kongsberg multibeam vendor format
0178_20121009_033829_revelle.all.mb58.gz 21.46MB Kongsberg multibeam vendor format
0179_20121009_040828_revelle.all.mb58.gz 21.59MB Kongsberg multibeam vendor format
0180_20121009_043823_revelle.all.mb58.gz 21.64MB Kongsberg multibeam vendor format
0181_20121009_050825_revelle.all.mb58.gz 21.75MB Kongsberg multibeam vendor format
0182_20121009_053820_revelle.all.mb58.gz 21.79MB Kongsberg multibeam vendor format
0183_20121009_060828_revelle.all.mb58.gz 21.79MB Kongsberg multibeam vendor format
0184_20121009_063834_revelle.all.mb58.gz 21.43MB Kongsberg multibeam vendor format
0185_20121009_070833_revelle.all.mb58.gz 21.00MB Kongsberg multibeam vendor format
0186_20121009_073819_revelle.all.mb58.gz 21.43MB Kongsberg multibeam vendor format
0187_20121009_080829_revelle.all.mb58.gz 21.59MB Kongsberg multibeam vendor format
0188_20121009_083830_revelle.all.mb58.gz 21.92MB Kongsberg multibeam vendor format
0189_20121009_090828_revelle.all.mb58.gz 21.76MB Kongsberg multibeam vendor format
0190_20121009_093822_revelle.all.mb58.gz 21.80MB Kongsberg multibeam vendor format
0191_20121009_100822_revelle.all.mb58.gz 21.75MB Kongsberg multibeam vendor format
0192_20121009_103826_revelle.all.mb58.gz 21.65MB Kongsberg multibeam vendor format
0193_20121009_110827_revelle.all.mb58.gz 21.77MB Kongsberg multibeam vendor format
0194_20121009_113833_revelle.all.mb58.gz 21.66MB Kongsberg multibeam vendor format
0195_20121009_120833_revelle.all.mb58.gz 21.71MB Kongsberg multibeam vendor format
0196_20121009_123826_revelle.all.mb58.gz 21.79MB Kongsberg multibeam vendor format
0197_20121009_130829_revelle.all.mb58.gz 21.88MB Kongsberg multibeam vendor format
0198_20121009_133830_revelle.all.mb58.gz 21.76MB Kongsberg multibeam vendor format
0199_20121009_140824_revelle.all.mb58.gz 21.80MB Kongsberg multibeam vendor format
0200_20121009_143827_revelle.all.mb58.gz 21.80MB Kongsberg multibeam vendor format
0201_20121009_150828_revelle.all.mb58.gz 21.41MB Kongsberg multibeam vendor format
0202_20121009_153826_revelle.all.mb58.gz 20.92MB Kongsberg multibeam vendor format
0203_20121009_160822_revelle.all.mb58.gz 20.95MB Kongsberg multibeam vendor format
0204_20121009_163821_revelle.all.mb58.gz 21.02MB Kongsberg multibeam vendor format
0205_20121009_170827_revelle.all.mb58.gz 21.05MB Kongsberg multibeam vendor format
0206_20121009_173833_revelle.all.mb58.gz 20.82MB Kongsberg multibeam vendor format
0207_20121009_180819_revelle.all.mb58.gz 21.12MB Kongsberg multibeam vendor format
0208_20121009_183830_revelle.all.mb58.gz 20.93MB Kongsberg multibeam vendor format
0209_20121009_190824_revelle.all.mb58.gz 20.88MB Kongsberg multibeam vendor format
0210_20121009_193821_revelle.all.mb58.gz 20.93MB Kongsberg multibeam vendor format
0211_20121009_200823_revelle.all.mb58.gz 21.11MB Kongsberg multibeam vendor format
0212_20121009_203837_revelle.all.mb58.gz 20.77MB Kongsberg multibeam vendor format
0213_20121009_210826_revelle.all.mb58.gz 20.94MB Kongsberg multibeam vendor format
0214_20121009_213829_revelle.all.mb58.gz 20.94MB Kongsberg multibeam vendor format
0215_20121009_220832_revelle.all.mb58.gz 21.59MB Kongsberg multibeam vendor format
0216_20121009_223830_revelle.all.mb58.gz 21.57MB Kongsberg multibeam vendor format
0217_20121009_230829_revelle.all.mb58.gz 21.52MB Kongsberg multibeam vendor format
0218_20121009_233826_revelle.all.mb58.gz 21.80MB Kongsberg multibeam vendor format
0219_20121010_000827_revelle.all.mb58.gz 21.52MB Kongsberg multibeam vendor format
0220_20121010_003824_revelle.all.mb58.gz 20.78MB Kongsberg multibeam vendor format
0221_20121010_010820_revelle.all.mb58.gz 21.08MB Kongsberg multibeam vendor format
0222_20121010_013833_revelle.all.mb58.gz 21.45MB Kongsberg multibeam vendor format
0223_20121010_020829_revelle.all.mb58.gz 21.65MB Kongsberg multibeam vendor format
0224_20121010_023822_revelle.all.mb58.gz 21.16MB Kongsberg multibeam vendor format
0225_20121010_030821_revelle.all.mb58.gz 20.56MB Kongsberg multibeam vendor format
0226_20121010_033831_revelle.all.mb58.gz 21.72MB Kongsberg multibeam vendor format
0227_20121010_040834_revelle.all.mb58.gz 21.23MB Kongsberg multibeam vendor format
0228_20121010_043838_revelle.all.mb58.gz 20.94MB Kongsberg multibeam vendor format
0229_20121010_050820_revelle.all.mb58.gz 21.13MB Kongsberg multibeam vendor format
0230_20121010_053820_revelle.all.mb58.gz 21.13MB Kongsberg multibeam vendor format
0231_20121010_060824_revelle.all.mb58.gz 21.11MB Kongsberg multibeam vendor format
0232_20121010_063828_revelle.all.mb58.gz 21.25MB Kongsberg multibeam vendor format
0233_20121010_070834_revelle.all.mb58.gz 21.10MB Kongsberg multibeam vendor format
0234_20121010_073828_revelle.all.mb58.gz 21.15MB Kongsberg multibeam vendor format
0235_20121010_080831_revelle.all.mb58.gz 21.06MB Kongsberg multibeam vendor format
0236_20121010_083825_revelle.all.mb58.gz 21.07MB Kongsberg multibeam vendor format
0237_20121010_090821_revelle.all.mb58.gz 21.18MB Kongsberg multibeam vendor format
0238_20121010_093824_revelle.all.mb58.gz 21.25MB Kongsberg multibeam vendor format
0239_20121010_100833_revelle.all.mb58.gz 21.06MB Kongsberg multibeam vendor format
0240_20121010_103820_revelle.all.mb58.gz 21.37MB Kongsberg multibeam vendor format
0241_20121010_110834_revelle.all.mb58.gz 21.14MB Kongsberg multibeam vendor format
0242_20121010_113832_revelle.all.mb58.gz 21.00MB Kongsberg multibeam vendor format
0243_20121010_120823_revelle.all.mb58.gz 21.13MB Kongsberg multibeam vendor format
0244_20121010_123825_revelle.all.mb58.gz 21.15MB Kongsberg multibeam vendor format
0245_20121010_130830_revelle.all.mb58.gz 21.00MB Kongsberg multibeam vendor format
0246_20121010_133822_revelle.all.mb58.gz 21.24MB Kongsberg multibeam vendor format
0247_20121010_140834_revelle.all.mb58.gz 21.01MB Kongsberg multibeam vendor format
0248_20121010_143828_revelle.all.mb58.gz 21.03MB Kongsberg multibeam vendor format
0249_20121010_150825_revelle.all.mb58.gz 21.20MB Kongsberg multibeam vendor format
0250_20121010_153837_revelle.all.mb58.gz 20.96MB Kongsberg multibeam vendor format
0251_20121010_160829_revelle.all.mb58.gz 20.97MB Kongsberg multibeam vendor format
0252_20121010_163820_revelle.all.mb58.gz 21.21MB Kongsberg multibeam vendor format
0253_20121010_170832_revelle.all.mb58.gz 20.99MB Kongsberg multibeam vendor format
0254_20121010_173825_revelle.all.mb58.gz 21.18MB Kongsberg multibeam vendor format
0255_20121010_180834_revelle.all.mb58.gz 21.04MB Kongsberg multibeam vendor format
0256_20121010_183832_revelle.all.mb58.gz 20.97MB Kongsberg multibeam vendor format
0257_20121010_190822_revelle.all.mb58.gz 21.33MB Kongsberg multibeam vendor format
0258_20121010_193836_revelle.all.mb58.gz 20.82MB Kongsberg multibeam vendor format
0259_20121010_200830_revelle.all.mb58.gz 21.07MB Kongsberg multibeam vendor format
0260_20121010_203836_revelle.all.mb58.gz 21.31MB Kongsberg multibeam vendor format
0261_20121010_210830_revelle.all.mb58.gz 21.72MB Kongsberg multibeam vendor format
0262_20121010_213821_revelle.all.mb58.gz 22.02MB Kongsberg multibeam vendor format
0263_20121010_220825_revelle.all.mb58.gz 22.40MB Kongsberg multibeam vendor format
0264_20121010_223829_revelle.all.mb58.gz 21.95MB Kongsberg multibeam vendor format
0265_20121010_230823_revelle.all.mb58.gz 22.41MB Kongsberg multibeam vendor format
0266_20121010_233830_revelle.all.mb58.gz 21.99MB Kongsberg multibeam vendor format
0267_20121011_000825_revelle.all.mb58.gz 21.45MB Kongsberg multibeam vendor format
0268_20121011_003835_revelle.all.mb58.gz 20.93MB Kongsberg multibeam vendor format
0269_20121011_010821_revelle.all.mb58.gz 21.14MB Kongsberg multibeam vendor format
0270_20121011_013829_revelle.all.mb58.gz 20.96MB Kongsberg multibeam vendor format
0271_20121011_020824_revelle.all.mb58.gz 14.94MB Kongsberg multibeam vendor format
0272_20121011_023507_revelle.all.mb58.gz 21.03MB Kongsberg multibeam vendor format
0273_20121011_030509_revelle.all.mb58.gz 20.86MB Kongsberg multibeam vendor format
0274_20121011_033453_revelle.all.mb58.gz 21.06MB Kongsberg multibeam vendor format
0275_20121011_040454_revelle.all.mb58.gz 21.06MB Kongsberg multibeam vendor format
0276_20121011_043455_revelle.all.mb58.gz 21.04MB Kongsberg multibeam vendor format
0277_20121011_050454_revelle.all.mb58.gz 21.23MB Kongsberg multibeam vendor format
0278_20121011_053509_revelle.all.mb58.gz 21.02MB Kongsberg multibeam vendor format
0279_20121011_060506_revelle.all.mb58.gz 21.04MB Kongsberg multibeam vendor format
0280_20121011_063505_revelle.all.mb58.gz 21.06MB Kongsberg multibeam vendor format
0281_20121011_070505_revelle.all.mb58.gz 21.06MB Kongsberg multibeam vendor format
0282_20121011_073506_revelle.all.mb58.gz 21.04MB Kongsberg multibeam vendor format
0283_20121011_080507_revelle.all.mb58.gz 21.03MB Kongsberg multibeam vendor format
0284_20121011_083507_revelle.all.mb58.gz 20.95MB Kongsberg multibeam vendor format
0285_20121011_090456_revelle.all.mb58.gz 21.25MB Kongsberg multibeam vendor format
0286_20121011_093500_revelle.all.mb58.gz 21.46MB Kongsberg multibeam vendor format
0287_20121011_100510_revelle.all.mb58.gz 21.39MB Kongsberg multibeam vendor format
0288_20121011_103507_revelle.all.mb58.gz 21.33MB Kongsberg multibeam vendor format
0289_20121011_110503_revelle.all.mb58.gz 21.16MB Kongsberg multibeam vendor format
0290_20121011_113457_revelle.all.mb58.gz 21.04MB Kongsberg multibeam vendor format
0291_20121011_120454_revelle.all.mb58.gz 21.25MB Kongsberg multibeam vendor format
0292_20121011_123507_revelle.all.mb58.gz 20.93MB Kongsberg multibeam vendor format
0293_20121011_130459_revelle.all.mb58.gz 21.12MB Kongsberg multibeam vendor format
0294_20121011_133507_revelle.all.mb58.gz 20.89MB Kongsberg multibeam vendor format
0295_20121011_140453_revelle.all.mb58.gz 21.07MB Kongsberg multibeam vendor format
0296_20121011_143456_revelle.all.mb58.gz 21.10MB Kongsberg multibeam vendor format
0297_20121011_150500_revelle.all.mb58.gz 21.12MB Kongsberg multibeam vendor format
0298_20121011_153508_revelle.all.mb58.gz 20.88MB Kongsberg multibeam vendor format
0299_20121011_160456_revelle.all.mb58.gz 21.12MB Kongsberg multibeam vendor format
0300_20121011_163504_revelle.all.mb58.gz 21.04MB Kongsberg multibeam vendor format
0301_20121011_170508_revelle.all.mb58.gz 20.84MB Kongsberg multibeam vendor format
0302_20121011_173455_revelle.all.mb58.gz 21.03MB Kongsberg multibeam vendor format
0303_20121011_180457_revelle.all.mb58.gz 21.01MB Kongsberg multibeam vendor format
0304_20121011_183457_revelle.all.mb58.gz 21.01MB Kongsberg multibeam vendor format
0305_20121011_190457_revelle.all.mb58.gz 21.16MB Kongsberg multibeam vendor format
0306_20121011_193510_revelle.all.mb58.gz 20.90MB Kongsberg multibeam vendor format
0307_20121011_200455_revelle.all.mb58.gz 21.25MB Kongsberg multibeam vendor format
0308_20121011_203504_revelle.all.mb58.gz 21.23MB Kongsberg multibeam vendor format
0309_20121011_210510_revelle.all.mb58.gz 21.12MB Kongsberg multibeam vendor format
0310_20121011_213501_revelle.all.mb58.gz 21.20MB Kongsberg multibeam vendor format
0311_20121011_220504_revelle.all.mb58.gz 21.06MB Kongsberg multibeam vendor format
0312_20121011_223501_revelle.all.mb58.gz 21.17MB Kongsberg multibeam vendor format
0313_20121011_230510_revelle.all.mb58.gz 20.85MB Kongsberg multibeam vendor format
0314_20121011_233456_revelle.all.mb58.gz 21.05MB Kongsberg multibeam vendor format
0315_20121012_000457_revelle.all.mb58.gz 21.02MB Kongsberg multibeam vendor format
0316_20121012_003454_revelle.all.mb58.gz 21.19MB Kongsberg multibeam vendor format
0317_20121012_010506_revelle.all.mb58.gz 20.98MB Kongsberg multibeam vendor format
0318_20121012_013459_revelle.all.mb58.gz 21.54MB Kongsberg multibeam vendor format
0319_20121012_020455_revelle.all.mb58.gz 22.08MB Kongsberg multibeam vendor format
0320_20121012_023503_revelle.all.mb58.gz 22.11MB Kongsberg multibeam vendor format
0321_20121012_030503_revelle.all.mb58.gz 22.13MB Kongsberg multibeam vendor format
0322_20121012_033507_revelle.all.mb58.gz 21.83MB Kongsberg multibeam vendor format
0323_20121012_040506_revelle.all.mb58.gz 21.49MB Kongsberg multibeam vendor format
0324_20121012_043501_revelle.all.mb58.gz 21.20MB Kongsberg multibeam vendor format
0325_20121012_050506_revelle.all.mb58.gz 21.11MB Kongsberg multibeam vendor format
0326_20121012_053511_revelle.all.mb58.gz 21.03MB Kongsberg multibeam vendor format
0327_20121012_060508_revelle.all.mb58.gz 21.08MB Kongsberg multibeam vendor format
0328_20121012_063509_revelle.all.mb58.gz 21.07MB Kongsberg multibeam vendor format
0329_20121012_070510_revelle.all.mb58.gz 21.08MB Kongsberg multibeam vendor format
0330_20121012_073511_revelle.all.mb58.gz 20.87MB Kongsberg multibeam vendor format
0331_20121012_080454_revelle.all.mb58.gz 21.08MB Kongsberg multibeam vendor format
0332_20121012_083456_revelle.all.mb58.gz 21.11MB Kongsberg multibeam vendor format
0333_20121012_090501_revelle.all.mb58.gz 21.11MB Kongsberg multibeam vendor format
0334_20121012_093505_revelle.all.mb58.gz 20.91MB Kongsberg multibeam vendor format
0335_20121012_100454_revelle.all.mb58.gz 21.13MB Kongsberg multibeam vendor format
0336_20121012_103501_revelle.all.mb58.gz 21.11MB Kongsberg multibeam vendor format
0337_20121012_110506_revelle.all.mb58.gz 20.92MB Kongsberg multibeam vendor format
0338_20121012_113455_revelle.all.mb58.gz 21.12MB Kongsberg multibeam vendor format
0339_20121012_120500_revelle.all.mb58.gz 21.13MB Kongsberg multibeam vendor format
0340_20121012_123507_revelle.all.mb58.gz 20.94MB Kongsberg multibeam vendor format
0341_20121012_130458_revelle.all.mb58.gz 21.03MB Kongsberg multibeam vendor format
0342_20121012_133458_revelle.all.mb58.gz 21.02MB Kongsberg multibeam vendor format
0343_20121012_140458_revelle.all.mb58.gz 21.15MB Kongsberg multibeam vendor format
0344_20121012_143507_revelle.all.mb58.gz 20.97MB Kongsberg multibeam vendor format
0345_20121012_150501_revelle.all.mb58.gz 21.16MB Kongsberg multibeam vendor format
0346_20121012_153511_revelle.all.mb58.gz 20.93MB Kongsberg multibeam vendor format
0347_20121012_160501_revelle.all.mb58.gz 21.14MB Kongsberg multibeam vendor format
0348_20121012_163508_revelle.all.mb58.gz 20.99MB Kongsberg multibeam vendor format
0349_20121012_170500_revelle.all.mb58.gz 21.13MB Kongsberg multibeam vendor format
0350_20121012_173509_revelle.all.mb58.gz 20.96MB Kongsberg multibeam vendor format
0351_20121012_180502_revelle.all.mb58.gz 21.10MB Kongsberg multibeam vendor format
0352_20121012_183507_revelle.all.mb58.gz 20.93MB Kongsberg multibeam vendor format
0353_20121012_190455_revelle.all.mb58.gz 21.11MB Kongsberg multibeam vendor format
0354_20121012_193459_revelle.all.mb58.gz 21.15MB Kongsberg multibeam vendor format
0355_20121012_200507_revelle.all.mb58.gz 21.11MB Kongsberg multibeam vendor format
0356_20121012_203511_revelle.all.mb58.gz 20.93MB Kongsberg multibeam vendor format
0357_20121012_210501_revelle.all.mb58.gz 21.10MB Kongsberg multibeam vendor format
0358_20121012_213505_revelle.all.mb58.gz 21.13MB Kongsberg multibeam vendor format
0359_20121012_220512_revelle.all.mb58.gz 20.91MB Kongsberg multibeam vendor format
0360_20121012_223500_revelle.all.mb58.gz 21.11MB Kongsberg multibeam vendor format
0361_20121012_230505_revelle.all.mb58.gz 21.09MB Kongsberg multibeam vendor format
0362_20121012_233505_revelle.all.mb58.gz 21.09MB Kongsberg multibeam vendor format
0363_20121013_000506_revelle.all.mb58.gz 21.09MB Kongsberg multibeam vendor format
0364_20121013_003508_revelle.all.mb58.gz 21.09MB Kongsberg multibeam vendor format
0365_20121013_010509_revelle.all.mb58.gz 20.90MB Kongsberg multibeam vendor format
0366_20121013_013456_revelle.all.mb58.gz 21.12MB Kongsberg multibeam vendor format
0367_20121013_020503_revelle.all.mb58.gz 14.51MB Kongsberg multibeam vendor format
0368_20121017_083641_revelle.all.mb58.gz 21.75MB Kongsberg multibeam vendor format
0369_20121017_090623_revelle.all.mb58.gz 22.01MB Kongsberg multibeam vendor format
0370_20121017_093633_revelle.all.mb58.gz 22.12MB Kongsberg multibeam vendor format
0371_20121017_100632_revelle.all.mb58.gz 21.83MB Kongsberg multibeam vendor format
0372_20121017_103635_revelle.all.mb58.gz 21.66MB Kongsberg multibeam vendor format
0373_20121017_110625_revelle.all.mb58.gz 21.93MB Kongsberg multibeam vendor format
0374_20121017_113628_revelle.all.mb58.gz 21.95MB Kongsberg multibeam vendor format
0375_20121017_120631_revelle.all.mb58.gz 21.90MB Kongsberg multibeam vendor format
0376_20121017_123636_revelle.all.mb58.gz 21.87MB Kongsberg multibeam vendor format
0377_20121017_130631_revelle.all.mb58.gz 21.94MB Kongsberg multibeam vendor format
0378_20121017_133628_revelle.all.mb58.gz 21.88MB Kongsberg multibeam vendor format
0379_20121017_140629_revelle.all.mb58.gz 21.86MB Kongsberg multibeam vendor format
0380_20121017_143627_revelle.all.mb58.gz 21.91MB Kongsberg multibeam vendor format
0381_20121017_150635_revelle.all.mb58.gz 21.66MB Kongsberg multibeam vendor format
0382_20121017_153635_revelle.all.mb58.gz 21.81MB Kongsberg multibeam vendor format
0383_20121017_160635_revelle.all.mb58.gz 21.82MB Kongsberg multibeam vendor format
0384_20121017_163634_revelle.all.mb58.gz 21.82MB Kongsberg multibeam vendor format
0385_20121017_170634_revelle.all.mb58.gz 21.88MB Kongsberg multibeam vendor format
0386_20121017_173634_revelle.all.mb58.gz 21.84MB Kongsberg multibeam vendor format
0387_20121017_180631_revelle.all.mb58.gz 21.84MB Kongsberg multibeam vendor format
0388_20121017_183633_revelle.all.mb58.gz 21.88MB Kongsberg multibeam vendor format
0389_20121017_190633_revelle.all.mb58.gz 21.98MB Kongsberg multibeam vendor format
0390_20121017_193632_revelle.all.mb58.gz 21.90MB Kongsberg multibeam vendor format
0391_20121017_200634_revelle.all.mb58.gz 21.85MB Kongsberg multibeam vendor format
0392_20121017_203630_revelle.all.mb58.gz 21.94MB Kongsberg multibeam vendor format
0393_20121017_210633_revelle.all.mb58.gz 21.88MB Kongsberg multibeam vendor format
0394_20121017_213629_revelle.all.mb58.gz 21.55MB Kongsberg multibeam vendor format
0395_20121017_220633_revelle.all.mb58.gz 21.02MB Kongsberg multibeam vendor format
0396_20121017_223624_revelle.all.mb58.gz 21.37MB Kongsberg multibeam vendor format
0397_20121017_230626_revelle.all.mb58.gz 21.23MB Kongsberg multibeam vendor format
0398_20121017_233629_revelle.all.mb58.gz 21.09MB Kongsberg multibeam vendor format
0399_20121018_000625_revelle.all.mb58.gz 21.27MB Kongsberg multibeam vendor format
0400_20121018_003631_revelle.all.mb58.gz 21.18MB Kongsberg multibeam vendor format
0401_20121018_010634_revelle.all.mb58.gz 21.13MB Kongsberg multibeam vendor format
0402_20121018_013630_revelle.all.mb58.gz 21.07MB Kongsberg multibeam vendor format
0403_20121018_020629_revelle.all.mb58.gz 21.09MB Kongsberg multibeam vendor format
0404_20121018_023631_revelle.all.mb58.gz 20.97MB Kongsberg multibeam vendor format
0405_20121018_030625_revelle.all.mb58.gz 21.22MB Kongsberg multibeam vendor format
0406_20121018_033640_revelle.all.mb58.gz 21.01MB Kongsberg multibeam vendor format
0407_20121018_040635_revelle.all.mb58.gz 21.01MB Kongsberg multibeam vendor format
0408_20121018_043632_revelle.all.mb58.gz 21.16MB Kongsberg multibeam vendor format
0409_20121018_050638_revelle.all.mb58.gz 20.94MB Kongsberg multibeam vendor format
0410_20121018_053626_revelle.all.mb58.gz 21.22MB Kongsberg multibeam vendor format
0411_20121018_060639_revelle.all.mb58.gz 20.99MB Kongsberg multibeam vendor format
0412_20121018_063631_revelle.all.mb58.gz 21.17MB Kongsberg multibeam vendor format
0413_20121018_070637_revelle.all.mb58.gz 21.22MB Kongsberg multibeam vendor format
0414_20121018_073639_revelle.all.mb58.gz 21.04MB Kongsberg multibeam vendor format
0415_20121018_080627_revelle.all.mb58.gz 21.30MB Kongsberg multibeam vendor format
0416_20121018_083633_revelle.all.mb58.gz 21.07MB Kongsberg multibeam vendor format
0417_20121018_090625_revelle.all.mb58.gz 21.14MB Kongsberg multibeam vendor format
0418_20121018_093625_revelle.all.mb58.gz 21.11MB Kongsberg multibeam vendor format
0419_20121018_100626_revelle.all.mb58.gz 21.21MB Kongsberg multibeam vendor format
0420_20121018_103634_revelle.all.mb58.gz 21.07MB Kongsberg multibeam vendor format
0421_20121018_110624_revelle.all.mb58.gz 21.56MB Kongsberg multibeam vendor format
0422_20121018_113635_revelle.all.mb58.gz 21.43MB Kongsberg multibeam vendor format
0423_20121018_120636_revelle.all.mb58.gz 21.60MB Kongsberg multibeam vendor format
0424_20121018_123629_revelle.all.mb58.gz 21.37MB Kongsberg multibeam vendor format
0425_20121018_130630_revelle.all.mb58.gz 21.44MB Kongsberg multibeam vendor format
0426_20121018_133632_revelle.all.mb58.gz 21.56MB Kongsberg multibeam vendor format
0427_20121018_140634_revelle.all.mb58.gz 21.48MB Kongsberg multibeam vendor format
0428_20121018_143633_revelle.all.mb58.gz 21.60MB Kongsberg multibeam vendor format
0429_20121018_150640_revelle.all.mb58.gz 21.34MB Kongsberg multibeam vendor format
0430_20121018_153640_revelle.all.mb58.gz 21.20MB Kongsberg multibeam vendor format
0431_20121018_160627_revelle.all.mb58.gz 21.38MB Kongsberg multibeam vendor format
0432_20121018_163635_revelle.all.mb58.gz 21.21MB Kongsberg multibeam vendor format
0433_20121018_170629_revelle.all.mb58.gz 21.17MB Kongsberg multibeam vendor format
0434_20121018_173625_revelle.all.mb58.gz 21.27MB Kongsberg multibeam vendor format
0435_20121018_180629_revelle.all.mb58.gz 21.23MB Kongsberg multibeam vendor format
0436_20121018_183629_revelle.all.mb58.gz 21.51MB Kongsberg multibeam vendor format
0437_20121018_190633_revelle.all.mb58.gz 21.44MB Kongsberg multibeam vendor format
0438_20121018_193633_revelle.all.mb58.gz 21.35MB Kongsberg multibeam vendor format
0439_20121018_200636_revelle.all.mb58.gz 21.28MB Kongsberg multibeam vendor format
0440_20121018_203631_revelle.all.mb58.gz 21.55MB Kongsberg multibeam vendor format
0441_20121018_210629_revelle.all.mb58.gz 21.68MB Kongsberg multibeam vendor format
0442_20121018_213639_revelle.all.mb58.gz 21.51MB Kongsberg multibeam vendor format
0443_20121018_220636_revelle.all.mb58.gz 21.47MB Kongsberg multibeam vendor format
0444_20121018_223636_revelle.all.mb58.gz 21.40MB Kongsberg multibeam vendor format
0445_20121018_230627_revelle.all.mb58.gz 21.65MB Kongsberg multibeam vendor format
0446_20121018_233638_revelle.all.mb58.gz 21.32MB Kongsberg multibeam vendor format
0447_20121019_000635_revelle.all.mb58.gz 21.45MB Kongsberg multibeam vendor format
0448_20121019_003640_revelle.all.mb58.gz 12.16MB Kongsberg multibeam vendor format
0449_20121021_053427_revelle.all.mb58.gz 21.74MB Kongsberg multibeam vendor format
0450_20121021_060420_revelle.all.mb58.gz 21.58MB Kongsberg multibeam vendor format
0451_20121021_063410_revelle.all.mb58.gz 21.67MB Kongsberg multibeam vendor format
0452_20121021_070409_revelle.all.mb58.gz 21.62MB Kongsberg multibeam vendor format
0453_20121021_073415_revelle.all.mb58.gz 21.75MB Kongsberg multibeam vendor format
0454_20121021_080413_revelle.all.mb58.gz 21.75MB Kongsberg multibeam vendor format
0455_20121021_083419_revelle.all.mb58.gz 21.68MB Kongsberg multibeam vendor format
0456_20121021_090418_revelle.all.mb58.gz 21.70MB Kongsberg multibeam vendor format
0457_20121021_093411_revelle.all.mb58.gz 21.88MB Kongsberg multibeam vendor format
0458_20121021_100410_revelle.all.mb58.gz 21.83MB Kongsberg multibeam vendor format
0459_20121021_103418_revelle.all.mb58.gz 20.96MB Kongsberg multibeam vendor format
0460_20121021_110418_revelle.all.mb58.gz 21.15MB Kongsberg multibeam vendor format
0461_20121021_113412_revelle.all.mb58.gz 20.91MB Kongsberg multibeam vendor format
0462_20121021_120410_revelle.all.mb58.gz 21.41MB Kongsberg multibeam vendor format
0463_20121021_123415_revelle.all.mb58.gz 21.66MB Kongsberg multibeam vendor format
0464_20121021_130413_revelle.all.mb58.gz 21.77MB Kongsberg multibeam vendor format
0465_20121021_133416_revelle.all.mb58.gz 21.53MB Kongsberg multibeam vendor format
0466_20121021_140409_revelle.all.mb58.gz 21.30MB Kongsberg multibeam vendor format
0467_20121021_143417_revelle.all.mb58.gz 21.14MB Kongsberg multibeam vendor format
0468_20121021_150415_revelle.all.mb58.gz 21.25MB Kongsberg multibeam vendor format
0469_20121021_153426_revelle.all.mb58.gz 21.27MB Kongsberg multibeam vendor format
0470_20121021_160424_revelle.all.mb58.gz 20.97MB Kongsberg multibeam vendor format
0471_20121021_163421_revelle.all.mb58.gz 21.05MB Kongsberg multibeam vendor format
0472_20121021_170417_revelle.all.mb58.gz 20.95MB Kongsberg multibeam vendor format
0473_20121021_173410_revelle.all.mb58.gz 21.22MB Kongsberg multibeam vendor format
0474_20121021_180423_revelle.all.mb58.gz 20.85MB Kongsberg multibeam vendor format
0475_20121021_183424_revelle.all.mb58.gz 20.96MB Kongsberg multibeam vendor format
0476_20121021_190425_revelle.all.mb58.gz 20.91MB Kongsberg multibeam vendor format
0477_20121021_193412_revelle.all.mb58.gz 20.93MB Kongsberg multibeam vendor format
0478_20121021_200416_revelle.all.mb58.gz 20.77MB Kongsberg multibeam vendor format
0479_20121021_203421_revelle.all.mb58.gz 20.81MB Kongsberg multibeam vendor format
0480_20121021_210412_revelle.all.mb58.gz 21.34MB Kongsberg multibeam vendor format
0481_20121021_213412_revelle.all.mb58.gz 21.37MB Kongsberg multibeam vendor format
0482_20121021_220422_revelle.all.mb58.gz 21.17MB Kongsberg multibeam vendor format
0483_20121021_223414_revelle.all.mb58.gz 21.32MB Kongsberg multibeam vendor format
0484_20121021_230414_revelle.all.mb58.gz 21.37MB Kongsberg multibeam vendor format
0485_20121021_233426_revelle.all.mb58.gz 21.12MB Kongsberg multibeam vendor format
0486_20121022_000411_revelle.all.mb58.gz 21.34MB Kongsberg multibeam vendor format
0487_20121022_003424_revelle.all.mb58.gz 21.07MB Kongsberg multibeam vendor format
0488_20121022_010410_revelle.all.mb58.gz 21.10MB Kongsberg multibeam vendor format
0489_20121022_013419_revelle.all.mb58.gz 21.11MB Kongsberg multibeam vendor format
0490_20121022_020411_revelle.all.mb58.gz 21.40MB Kongsberg multibeam vendor format
0491_20121022_023420_revelle.all.mb58.gz 21.30MB Kongsberg multibeam vendor format
0492_20121022_030426_revelle.all.mb58.gz 21.34MB Kongsberg multibeam vendor format
0493_20121022_033417_revelle.all.mb58.gz 21.61MB Kongsberg multibeam vendor format
0494_20121022_040423_revelle.all.mb58.gz 21.44MB Kongsberg multibeam vendor format
0495_20121022_043420_revelle.all.mb58.gz 21.49MB Kongsberg multibeam vendor format
0496_20121022_050419_revelle.all.mb58.gz 21.20MB Kongsberg multibeam vendor format
0497_20121022_053411_revelle.all.mb58.gz 21.59MB Kongsberg multibeam vendor format
0498_20121022_060416_revelle.all.mb58.gz 22.10MB Kongsberg multibeam vendor format
0499_20121022_063423_revelle.all.mb58.gz 21.90MB Kongsberg multibeam vendor format
0500_20121022_070415_revelle.all.mb58.gz 21.91MB Kongsberg multibeam vendor format
0501_20121022_073414_revelle.all.mb58.gz 21.91MB Kongsberg multibeam vendor format
0502_20121022_080414_revelle.all.mb58.gz 21.98MB Kongsberg multibeam vendor format
0503_20121022_083412_revelle.all.mb58.gz 22.10MB Kongsberg multibeam vendor format
0504_20121022_090422_revelle.all.mb58.gz 21.90MB Kongsberg multibeam vendor format
0505_20121022_093422_revelle.all.mb58.gz 21.88MB Kongsberg multibeam vendor format
0506_20121022_100415_revelle.all.mb58.gz 22.21MB Kongsberg multibeam vendor format
0507_20121022_103422_revelle.all.mb58.gz 22.06MB Kongsberg multibeam vendor format
0508_20121022_110418_revelle.all.mb58.gz 21.98MB Kongsberg multibeam vendor format
0509_20121022_113417_revelle.all.mb58.gz 22.07MB Kongsberg multibeam vendor format
0510_20121022_120421_revelle.all.mb58.gz 22.44MB Kongsberg multibeam vendor format
0511_20121022_123416_revelle.all.mb58.gz 23.03MB Kongsberg multibeam vendor format
0512_20121022_130419_revelle.all.mb58.gz 22.85MB Kongsberg multibeam vendor format
0513_20121022_133414_revelle.all.mb58.gz 23.01MB Kongsberg multibeam vendor format
0514_20121022_140415_revelle.all.mb58.gz 23.45MB Kongsberg multibeam vendor format
0515_20121022_143422_revelle.all.mb58.gz 26.22MB Kongsberg multibeam vendor format
0516_20121022_150422_revelle.all.mb58.gz 22.53MB Kongsberg multibeam vendor format
0517_20121022_153413_revelle.all.mb58.gz 22.88MB Kongsberg multibeam vendor format
0518_20121022_160416_revelle.all.mb58.gz 22.82MB Kongsberg multibeam vendor format
0519_20121022_163416_revelle.all.mb58.gz 22.83MB Kongsberg multibeam vendor format
0520_20121022_170412_revelle.all.mb58.gz 23.11MB Kongsberg multibeam vendor format
0521_20121022_173415_revelle.all.mb58.gz 26.67MB Kongsberg multibeam vendor format
0522_20121022_180413_revelle.all.mb58.gz 33.92MB Kongsberg multibeam vendor format
0523_20121022_183412_revelle.all.mb58.gz 35.27MB Kongsberg multibeam vendor format
0524_20121022_190412_revelle.all.mb58.gz 15.08MB Kongsberg multibeam vendor format
0525_20121022_193418_revelle.all.mb58.gz 14.70MB Kongsberg multibeam vendor format
0526_20121022_200421_revelle.all.mb58.gz 9.24MB Kongsberg multibeam vendor format
0527_20121023_080453_revelle.all.mb58.gz 20.72MB Kongsberg multibeam vendor format
0528_20121023_083438_revelle.all.mb58.gz 21.35MB Kongsberg multibeam vendor format
0529_20121023_090438_revelle.all.mb58.gz 21.61MB Kongsberg multibeam vendor format
0530_20121023_093443_revelle.all.mb58.gz 21.53MB Kongsberg multibeam vendor format
0531_20121023_100439_revelle.all.mb58.gz 21.68MB Kongsberg multibeam vendor format
0532_20121023_103447_revelle.all.mb58.gz 21.50MB Kongsberg multibeam vendor format
0533_20121023_110438_revelle.all.mb58.gz 21.68MB Kongsberg multibeam vendor format
0534_20121023_113447_revelle.all.mb58.gz 21.44MB Kongsberg multibeam vendor format
0535_20121023_120438_revelle.all.mb58.gz 21.73MB Kongsberg multibeam vendor format
0536_20121023_123450_revelle.all.mb58.gz 21.41MB Kongsberg multibeam vendor format
0537_20121023_130436_revelle.all.mb58.gz 21.65MB Kongsberg multibeam vendor format
0538_20121023_133445_revelle.all.mb58.gz 21.55MB Kongsberg multibeam vendor format
0539_20121023_140449_revelle.all.mb58.gz 21.38MB Kongsberg multibeam vendor format
0540_20121023_143446_revelle.all.mb58.gz 21.33MB Kongsberg multibeam vendor format
0541_20121023_150442_revelle.all.mb58.gz 21.57MB Kongsberg multibeam vendor format
0542_20121023_153446_revelle.all.mb58.gz 21.40MB Kongsberg multibeam vendor format
0543_20121023_160436_revelle.all.mb58.gz 21.59MB Kongsberg multibeam vendor format
0544_20121023_163443_revelle.all.mb58.gz 21.24MB Kongsberg multibeam vendor format
0545_20121023_170435_revelle.all.mb58.gz 21.60MB Kongsberg multibeam vendor format
0546_20121023_173449_revelle.all.mb58.gz 21.13MB Kongsberg multibeam vendor format
0547_20121023_180440_revelle.all.mb58.gz 21.43MB Kongsberg multibeam vendor format
0548_20121023_183447_revelle.all.mb58.gz 21.38MB Kongsberg multibeam vendor format
0549_20121023_190449_revelle.all.mb58.gz 21.20MB Kongsberg multibeam vendor format
0550_20121023_193448_revelle.all.mb58.gz 21.35MB Kongsberg multibeam vendor format
0551_20121023_200441_revelle.all.mb58.gz 21.43MB Kongsberg multibeam vendor format
0552_20121023_203439_revelle.all.mb58.gz 21.36MB Kongsberg multibeam vendor format
0553_20121023_210450_revelle.all.mb58.gz 21.35MB Kongsberg multibeam vendor format
0554_20121023_213446_revelle.all.mb58.gz 21.15MB Kongsberg multibeam vendor format
0555_20121023_220439_revelle.all.mb58.gz 21.22MB Kongsberg multibeam vendor format
0556_20121023_223441_revelle.all.mb58.gz 21.43MB Kongsberg multibeam vendor format
0557_20121023_230445_revelle.all.mb58.gz 21.40MB Kongsberg multibeam vendor format
0558_20121023_233449_revelle.all.mb58.gz 21.05MB Kongsberg multibeam vendor format
0559_20121024_000447_revelle.all.mb58.gz 20.99MB Kongsberg multibeam vendor format
0560_20121024_003446_revelle.all.mb58.gz 21.10MB Kongsberg multibeam vendor format
0561_20121024_010444_revelle.all.mb58.gz 21.03MB Kongsberg multibeam vendor format
0562_20121024_013445_revelle.all.mb58.gz 20.97MB Kongsberg multibeam vendor format
0563_20121024_020443_revelle.all.mb58.gz 21.28MB Kongsberg multibeam vendor format
0564_20121024_023441_revelle.all.mb58.gz 21.33MB Kongsberg multibeam vendor format
0565_20121024_030446_revelle.all.mb58.gz 21.10MB Kongsberg multibeam vendor format
0566_20121024_033439_revelle.all.mb58.gz 21.73MB Kongsberg multibeam vendor format
0567_20121024_040450_revelle.all.mb58.gz 21.40MB Kongsberg multibeam vendor format
0568_20121024_043447_revelle.all.mb58.gz 21.46MB Kongsberg multibeam vendor format
0569_20121024_050440_revelle.all.mb58.gz 21.80MB Kongsberg multibeam vendor format
0570_20121024_053444_revelle.all.mb58.gz 21.83MB Kongsberg multibeam vendor format
0571_20121024_060435_revelle.all.mb58.gz 21.63MB Kongsberg multibeam vendor format
0572_20121024_063436_revelle.all.mb58.gz 20.95MB Kongsberg multibeam vendor format
0573_20121024_070438_revelle.all.mb58.gz 21.18MB Kongsberg multibeam vendor format
0574_20121024_073438_revelle.all.mb58.gz 21.61MB Kongsberg multibeam vendor format
0575_20121024_080442_revelle.all.mb58.gz 21.21MB Kongsberg multibeam vendor format
0576_20121024_083437_revelle.all.mb58.gz 21.65MB Kongsberg multibeam vendor format
0577_20121024_090443_revelle.all.mb58.gz 21.51MB Kongsberg multibeam vendor format
0578_20121024_093438_revelle.all.mb58.gz 21.55MB Kongsberg multibeam vendor format
0579_20121024_100444_revelle.all.mb58.gz 4.21MB Kongsberg multibeam vendor format
0580_20121024_103057_revelle.all.mb58.gz 20.36MB Kongsberg multibeam vendor format
0581_20121024_110048_revelle.all.mb58.gz 21.24MB Kongsberg multibeam vendor format
0582_20121024_113104_revelle.all.mb58.gz 21.58MB Kongsberg multibeam vendor format
0583_20121024_120104_revelle.all.mb58.gz 21.62MB Kongsberg multibeam vendor format
0584_20121024_123101_revelle.all.mb58.gz 21.37MB Kongsberg multibeam vendor format
0585_20121024_130104_revelle.all.mb58.gz 21.35MB Kongsberg multibeam vendor format
0586_20121024_133058_revelle.all.mb58.gz 21.50MB Kongsberg multibeam vendor format
0587_20121024_140049_revelle.all.mb58.gz 21.60MB Kongsberg multibeam vendor format
0588_20121024_143051_revelle.all.mb58.gz 21.42MB Kongsberg multibeam vendor format
0589_20121024_150058_revelle.all.mb58.gz 21.37MB Kongsberg multibeam vendor format
0590_20121024_153100_revelle.all.mb58.gz 21.69MB Kongsberg multibeam vendor format
0591_20121024_160057_revelle.all.mb58.gz 21.77MB Kongsberg multibeam vendor format
0592_20121024_163103_revelle.all.mb58.gz 21.52MB Kongsberg multibeam vendor format
0593_20121024_170059_revelle.all.mb58.gz 20.82MB Kongsberg multibeam vendor format
0594_20121024_173049_revelle.all.mb58.gz 20.98MB Kongsberg multibeam vendor format
0595_20121024_180053_revelle.all.mb58.gz 21.09MB Kongsberg multibeam vendor format
0596_20121024_183104_revelle.all.mb58.gz 20.83MB Kongsberg multibeam vendor format
0597_20121024_190055_revelle.all.mb58.gz 21.08MB Kongsberg multibeam vendor format
0598_20121024_193054_revelle.all.mb58.gz 21.59MB Kongsberg multibeam vendor format
0599_20121024_200053_revelle.all.mb58.gz 21.68MB Kongsberg multibeam vendor format
0600_20121024_203049_revelle.all.mb58.gz 21.32MB Kongsberg multibeam vendor format
0601_20121024_210057_revelle.all.mb58.gz 21.05MB Kongsberg multibeam vendor format
0602_20121024_213054_revelle.all.mb58.gz 21.47MB Kongsberg multibeam vendor format
0603_20121024_220102_revelle.all.mb58.gz 21.40MB Kongsberg multibeam vendor format
0604_20121024_223057_revelle.all.mb58.gz 21.44MB Kongsberg multibeam vendor format
0605_20121024_230102_revelle.all.mb58.gz 21.29MB Kongsberg multibeam vendor format
0606_20121024_233105_revelle.all.mb58.gz 21.53MB Kongsberg multibeam vendor format
0607_20121025_000104_revelle.all.mb58.gz 21.31MB Kongsberg multibeam vendor format
0608_20121025_003053_revelle.all.mb58.gz 21.39MB Kongsberg multibeam vendor format
0609_20121025_010102_revelle.all.mb58.gz 21.20MB Kongsberg multibeam vendor format
0610_20121025_013103_revelle.all.mb58.gz 21.26MB Kongsberg multibeam vendor format
0611_20121025_020057_revelle.all.mb58.gz 21.61MB Kongsberg multibeam vendor format
0612_20121025_023055_revelle.all.mb58.gz 21.75MB Kongsberg multibeam vendor format
0613_20121025_030059_revelle.all.mb58.gz 21.44MB Kongsberg multibeam vendor format
0614_20121025_033100_revelle.all.mb58.gz 21.66MB Kongsberg multibeam vendor format
0615_20121025_040051_revelle.all.mb58.gz 20.99MB Kongsberg multibeam vendor format
0616_20121025_043051_revelle.all.mb58.gz 19.12MB Kongsberg multibeam vendor format
0617_20121103_095025_revelle.all.mb58.gz 21.89MB Kongsberg multibeam vendor format
0618_20121103_102032_revelle.all.mb58.gz 21.89MB Kongsberg multibeam vendor format
0619_20121103_105026_revelle.all.mb58.gz 21.96MB Kongsberg multibeam vendor format
0620_20121103_112028_revelle.all.mb58.gz 21.64MB Kongsberg multibeam vendor format
0621_20121103_115027_revelle.all.mb58.gz 21.92MB Kongsberg multibeam vendor format
0622_20121103_122032_revelle.all.mb58.gz 21.65MB Kongsberg multibeam vendor format
0623_20121103_125023_revelle.all.mb58.gz 21.75MB Kongsberg multibeam vendor format
0624_20121103_132021_revelle.all.mb58.gz 22.05MB Kongsberg multibeam vendor format
0625_20121103_135034_revelle.all.mb58.gz 21.43MB Kongsberg multibeam vendor format
0626_20121103_142032_revelle.all.mb58.gz 21.41MB Kongsberg multibeam vendor format
0627_20121103_145020_revelle.all.mb58.gz 21.76MB Kongsberg multibeam vendor format
0628_20121103_152021_revelle.all.mb58.gz 21.75MB Kongsberg multibeam vendor format
0629_20121103_155026_revelle.all.mb58.gz 21.60MB Kongsberg multibeam vendor format
0630_20121103_162034_revelle.all.mb58.gz 21.62MB Kongsberg multibeam vendor format
0631_20121103_165034_revelle.all.mb58.gz 21.03MB Kongsberg multibeam vendor format
0632_20121103_172031_revelle.all.mb58.gz 20.77MB Kongsberg multibeam vendor format
0633_20121103_175022_revelle.all.mb58.gz 21.80MB Kongsberg multibeam vendor format
0634_20121103_182035_revelle.all.mb58.gz 21.64MB Kongsberg multibeam vendor format
0635_20121103_185032_revelle.all.mb58.gz 21.37MB Kongsberg multibeam vendor format
0636_20121103_192032_revelle.all.mb58.gz 20.88MB Kongsberg multibeam vendor format
0637_20121103_195031_revelle.all.mb58.gz 20.70MB Kongsberg multibeam vendor format
0638_20121103_202032_revelle.all.mb58.gz 20.86MB Kongsberg multibeam vendor format
0639_20121103_205029_revelle.all.mb58.gz 21.18MB Kongsberg multibeam vendor format
0640_20121103_212025_revelle.all.mb58.gz 21.46MB Kongsberg multibeam vendor format
0641_20121103_215025_revelle.all.mb58.gz 21.65MB Kongsberg multibeam vendor format
0642_20121103_222031_revelle.all.mb58.gz 21.36MB Kongsberg multibeam vendor format
0643_20121103_225025_revelle.all.mb58.gz 21.92MB Kongsberg multibeam vendor format
0644_20121103_232029_revelle.all.mb58.gz 21.19MB Kongsberg multibeam vendor format
0645_20121103_235034_revelle.all.mb58.gz 20.61MB Kongsberg multibeam vendor format
0646_20121104_002028_revelle.all.mb58.gz 20.60MB Kongsberg multibeam vendor format
0647_20121104_005028_revelle.all.mb58.gz 20.83MB Kongsberg multibeam vendor format
0648_20121104_012019_revelle.all.mb58.gz 21.08MB Kongsberg multibeam vendor format
0649_20121104_015024_revelle.all.mb58.gz 21.40MB Kongsberg multibeam vendor format
0650_20121104_022034_revelle.all.mb58.gz 21.17MB Kongsberg multibeam vendor format
0651_20121104_025034_revelle.all.mb58.gz 20.82MB Kongsberg multibeam vendor format
0652_20121104_032028_revelle.all.mb58.gz 20.91MB Kongsberg multibeam vendor format
0653_20121104_035028_revelle.all.mb58.gz 20.67MB Kongsberg multibeam vendor format
0654_20121104_042020_revelle.all.mb58.gz 20.94MB Kongsberg multibeam vendor format
0655_20121104_045026_revelle.all.mb58.gz 20.74MB Kongsberg multibeam vendor format
0656_20121104_052026_revelle.all.mb58.gz 20.94MB Kongsberg multibeam vendor format
0657_20121104_055037_revelle.all.mb58.gz 20.91MB Kongsberg multibeam vendor format
0658_20121104_062036_revelle.all.mb58.gz 20.76MB Kongsberg multibeam vendor format
0659_20121104_065029_revelle.all.mb58.gz 20.73MB Kongsberg multibeam vendor format
0660_20121104_072022_revelle.all.mb58.gz 20.76MB Kongsberg multibeam vendor format
0661_20121104_075025_revelle.all.mb58.gz 20.78MB Kongsberg multibeam vendor format
0662_20121104_082029_revelle.all.mb58.gz 20.63MB Kongsberg multibeam vendor format
0663_20121104_085035_revelle.all.mb58.gz 20.60MB Kongsberg multibeam vendor format
0664_20121104_092038_revelle.all.mb58.gz 20.75MB Kongsberg multibeam vendor format
0665_20121104_095027_revelle.all.mb58.gz 21.00MB Kongsberg multibeam vendor format
0666_20121104_102033_revelle.all.mb58.gz 20.90MB Kongsberg multibeam vendor format
0667_20121104_105027_revelle.all.mb58.gz 20.92MB Kongsberg multibeam vendor format
0668_20121104_112023_revelle.all.mb58.gz 20.96MB Kongsberg multibeam vendor format
0669_20121104_115027_revelle.all.mb58.gz 21.01MB Kongsberg multibeam vendor format
0670_20121104_122024_revelle.all.mb58.gz 21.43MB Kongsberg multibeam vendor format
0671_20121104_125035_revelle.all.mb58.gz 21.17MB Kongsberg multibeam vendor format
0672_20121104_132032_revelle.all.mb58.gz 21.01MB Kongsberg multibeam vendor format
0673_20121104_135025_revelle.all.mb58.gz 21.21MB Kongsberg multibeam vendor format
0674_20121104_142022_revelle.all.mb58.gz 20.89MB Kongsberg multibeam vendor format
0675_20121104_145024_revelle.all.mb58.gz 20.91MB Kongsberg multibeam vendor format
0676_20121104_152030_revelle.all.mb58.gz 20.88MB Kongsberg multibeam vendor format
0677_20121104_155029_revelle.all.mb58.gz 12.06MB Kongsberg multibeam vendor format

Metadata Files: 2

Files File Size Description
RR1213_Multibeam.xml NGDC created ISO metadata
xbt_bag_info.tar.gz 3.0KB Additional cruise information

Ancillary Files: 1

Files File Size Description
xbt.tar.gz 0.55MB Expendable Bathythermograph (XBT) data